CYGFM07 (41890 NORAD) Tracking and Keplerian Element Data

This shows tracking and keplerian element data for the satellite.

Feedback or suggestion? Click here.




ElementValue
Catalog41890
NameCYGFM07
Epoch Orbit26358
Epoch Day261.8161704
Epoch Year2021
RAAN82.0623
Inclination34.9524
Eccentricity0.0013618
Argument of Perigee197.4975
Mean Anonmoly162.5268
Mean Motion15.15643819
Decay Rate6.34E-06
L11 41890U 16078G 21261.81617040 .00000634 00000-0 34208-4 0 9997
L22 41890 34.9524 82.0623 0013618 197.4975 162.5268 15.15643819263580

Live tracking and technical data element details for CYGFM07 (NORAD 41890). CYGFM07 can be tracked NOW for your location showing map with azimuth and elevation plus other details from your city location.

Track the satellite on the map from your city or location and see movement details for azimuth, elevation, latitude, longitude, range, height, and movement on the map or in text.







IsCatalogInMostPopularTable: catalog: 41890, numindb: 547
Update: records affected: 1



GetName: 41890 CYGFM07

Hit Count: updated at: Sun, 26 Sep 2021 00:26:32 GMT